Погода во Фряново

Россия / Московская область     56°07′47″N   38°25′57″E
темп.,
°C
ветер,
м/с
пор.,
м/с
влажн.,
%
обл.,
%
осадки,
мм/ч
давл.,
гПа
погр.,
м
11 апреля, вс
вс1100:000ю310831 0.0 1025171
03:000ююз29860 0.0 1026142
06:000юз28875 0.0 1027131
09:00+6юз24695 0.0 1029317
12:00+11ююз35572 0.0 1029750
15:00+13юз34500 0.0 10301153
18:00+10юв11732 0.0 103010
21:00+5юв22883 0.0 103214
12 апреля, пн
пн1200:00+4ююв22830 0.0 103311
03:00+3юв22863 0.0 103421
06:00+3вюв228515 0.0 103436
09:00+7вюв3969100 0.0 1033353
12:00+11вюв5955100 0.0 1032741
15:00+11вюв4860100 0.0 1030690
18:00+9вюв497999 0.0 1028533
21:00+7вюв3109499 0.0 1028322
13 апреля, вт
вт1300:00+6вюв289896 0.0 1027185
03:00+5юв269799 0.0 1026123
06:00+5юв2695100 0.0 1024114
09:00+10ююв4976100 0.0 1023287
12:00+14ю4865100 0.0 1023578
15:00+17ю3659100 0.0 10221028
18:00+15ююв2765100 0.1 1021148
21:00+11ююв31172100 0.1 1021208
14 апреля, ср
ср1400:00+10ююв2274100 0.0 102037
03:00+9ю238064 0.0 102051
06:00+8ююв258580 0.0 101986
09:00+10ююв2477100 0.0 1019138
12:00+16ююз255696 0.0 1019687
15:00+19юз3748100 0.0 10182051
18:00+13ссз1279100 0.2 101832
21:00+11ссв2495100 0.4 1019136
15 апреля, чт
чт1500:00+10ссв369894 0.0 1018228
03:00+9ссв3796100 0.1 1018301
06:00+8ссв4895100 0.0 1018404
09:00+7ссв4888100 0.1 1019454
12:00+5с51083100 0.0 1020465
15:00+5с41082100 0.2 1020535
18:00+7с486799 0.0 1019973
21:00+4с5126394 0.0 1020699